COSMOS 2547 [GLONASS-K] (46805 NORAD) Tracking and Keplerian Element Data

This shows tracking and keplerian element data for the satellite.

Feedback or suggestion? Click here.




ElementValue
Catalog46805
NameCOSMOS 2547 [GLONASS-K]
Epoch Orbit67
Epoch Day331.62322027
Epoch Year2020
RAAN260.6951
Inclination64.7968
Eccentricity0.0007471
Argument of Perigee232.4646
Mean Anonmoly15.3546
Mean Motion2.13146601
Decay Rate-3.9E-07
L11 46805U 20075A 20331.62322027 -.00000039 00000-0 00000-0 0 9993
L22 46805 64.7968 260.6951 0007471 232.4646 15.3546 2.13146601 671

Live tracking and technical data element details for COSMOS 2547 [GLONASS-K] (NORAD 46805). COSMOS 2547 [GLONASS-K] can be tracked NOW for your location showing map with azimuth and elevation plus other details from your city location.

Track the satellite on the map from your city or location and see movement details for azimuth, elevation, latitude, longitude, range, height, and movement on the map or in text.







IsCatalogInMostPopularTable: catalog: 46805, numindb: 10
Update: records affected: 1



GetName: 46805 COSMOS 2547 [GLONASS-K]

Hit Count: updated at: Fri, 27 Nov 2020 13:58:49 GMT